Location: Eaton
(41.3139°N, 82.0207°W)
Time: 08:28:05
(UTC+00:00)

Cosmos 1656 Rocket - Pass Details

Date: 17 June 2021
Orbit: 794 x 847 km, 71.1° (Epoch: 27 July)

Event Time Altitude Azimuth Distance (km) Brightness Sun altitude
Rises 08:10:02 0° 327° (NNW) 3,417 7.1 -15.3°
Reaches altitude 10° 08:12:42 10° 318° (NW) 2,477 6.3 -15.0°
Maximum altitude 08:17:43 33° 256° (WSW) 1,386 4.4 -14.4°
Enters shadow 08:20:50 19° 207° (SSW) 1,876 4.9 -14.0°
